PLATFORM,ARGOS_ID,DATE (YYYY/MM/DD HH:MI:SS),LATITUDE (degree_north),LONGITUDE (degree_east),TEMP LEVEL0 (degree_Celsius),EWCT LEVEL0 (meter/second),NSCT LEVEL0 (meter/second),NSCT LEVEL1 (meter/second),EWCT LEVEL1 (meter/second),QC,SC40_GNRL_BattVolt,SC40_GNRL_Submergence
62453,24729,2005/05/19 00:00:00,46.7180,-2.4460,14.336,,,,,0014419999,10.35,0
62453,24729,2005/05/19 01:00:00,46.6640,-2.3230,14.336,3.80342,-2.42664,-1.66792,2.60597,0014410000,10.24,0
62453,24729,2005/05/19 02:00:00,46.6190,-2.4310,14.727,-3.33958,-2.02034,-1.38994,-2.29026,0014410000,10.35,0
62453,24729,2005/05/19 03:00:00,46.5550,-2.5940,14.844,-5.0403,-2.87047,-1.9768,-3.46008,0014410000,10.24,0
62453,24729,2005/05/19 05:00:00,46.4290,-2.9240,15.078,-5.10214,-2.82064,-1.94591,-3.50867,0014410000,10.24,0
62453,24729,2005/05/19 06:00:00,46.3960,-3.0040,15.195,-2.47377,-1.47531,-1.01929,-1.70366,0014410000,10.35,0
62453,24729,2005/05/19 07:00:00,46.3810,-3.0280,15.352,-0.74213,-0.670299,-0.463312,-0.511322,0014410000,10.35,0
62453,24729,2005/05/19 08:00:00,46.3810,-3.0290,15.703,-0.0309221,0,0,-0.021308,0014410000,10.24,0
62453,24729,2005/05/19 09:00:00,46.3840,-3.0230,16.25,0.185532,0.134045,0.092662,0.127845,0014410000,10.24,0
62453,24729,2005/05/19 10:00:00,46.4700,-2.8030,16.797,6.80286,3.84578,2.65632,4.68382,0014410000,10.24,0
62453,24729,2005/05/19 11:00:00,46.5550,-2.5930,18.008,6.49364,3.80707,2.62544,4.4639,0014410000,10.35,0
62453,24729,2005/05/19 12:00:00,46.6400,-2.3790,18.828,6.61733,3.81308,2.62544,4.5418,0014410000,10.35,0
62453,24729,2005/05/19 13:00:00,46.6790,-2.3700,18.828,0.278299,1.75155,1.20461,0.190792,0014410000,10.35,0
62453,24729,2005/05/19 14:00:00,46.8220,-2.3990,18.789,-0.89674,6.43325,4.41691,-0.613738,0014410000,10.24,0
62453,24729,2005/05/19 15:01:00,46.8090,-2.5210,18.281,-3.71065,-0.575952,-0.394955,-2.53654,0014410000,10.29,0
62453,24729,2005/05/19 16:00:00,46.7900,-2.5600,18.203,-1.2264,-0.870051,-0.596809,-0.838598,0014410000,10.35,0
62453,24729,2005/05/19 17:02:00,46.7980,-2.5500,18.086,0.299246,0.348575,0.239129,0.204642,0014410000,10.24,0
62453,24729,2005/05/19 18:00:00,46.7210,-2.7430,17.266,-6.17375,-3.58411,-2.46035,-4.22467,0014410000,10.35,0
62453,24729,2005/05/19 19:00:00,46.6360,-2.9490,16.641,-6.36995,-3.81883,-2.62544,-4.36548,0014410000,10.35,0
62453,24729,2005/05/19 20:00:00,46.5610,-3.1360,16.289,-5.78243,-3.36455,-2.31656,-3.9687,0014410000,10.35,0
62453,24729,2005/05/19 21:01:00,46.5170,-3.1840,15.859,-1.45993,-1.93937,-1.33677,-1.0031,0014410000,10.24,0
62453,24729,2005/05/20 00:01:00,46.1870,-3.4720,15.625,-2.96852,-4.91224,-3.39762,-2.04666,0014410000,10.18,0
62453,24729,2005/05/20 01:00:00,46.1320,-3.6060,15.703,-4.21379,-2.48893,-1.7276,-2.91543,0014410000,10.35,0
62453,24729,2005/05/20 02:00:00,46.0470,-3.8140,15.742,-6.43179,-3.77759,-2.62544,-4.45567,0014410000,10.24,0
62453,24729,2005/05/20 05:00:00,45.9770,-3.9840,15.664,-1.75225,-1.03552,-0.720708,-1.21559,0014410000,10.35,0
62453,24729,2005/05/20 06:00:00,46.0600,-3.8300,15.664,4.762,3.68393,2.56366,3.30316,0014410000,10.35,0
62453,24729,2005/05/20 07:01:00,46.1520,-3.6070,15.703,6.78258,4.02287,2.79506,4.69728,0014410000,10.35,0
62453,24729,2005/05/20 08:00:00,46.1710,-3.5760,15,0.974832,0.859844,0.596809,0.67444,0014410000,10.24,0
62453,24729,2005/05/20 09:00:00,46.1770,-3.5740,15,0.0618442,0.267065,0.185325,0.042777,0011110000,10.24,0
62453,24729,2005/05/20 10:00:00,46.1830,-3.5670,14.961,0.216455,0.267095,0.185325,0.149704,0011110000,10.35,0
62453,24729,2005/05/20 11:00:00,46.1860,-3.5580,15,0.278299,0.133558,0.092662,0.192461,0011110000,10.35,0
62453,24729,2005/05/20 12:00:00,46.1870,-3.5500,15.078,0.247377,0.0445211,0.030887,0.17107,0011110000,10.35,0
62453,24729,2005/05/20 13:00:00,46.1860,-3.5440,15.078,0.185532,-0.0445211,-0.030887,0.128303,0011110000,10.35,0
62453,24729,2005/05/20 14:00:00,46.1820,-3.5410,15.078,0.0927662,-0.178076,-0.12355,0.064154,0011110000,10.35,0
62453,24729,2005/05/20 15:00:00,46.1770,-3.5420,15.195,-0.0309221,-0.222577,-0.154437,-0.021387,0011110000,10.35,5
62453,24729,2005/05/20 16:00:00,46.1720,-3.5490,15.078,-0.216455,-0.222556,-0.154437,-0.149719,0011110000,10.35,35
62453,24729,2005/05/20 17:00:00,46.1680,-3.5580,15.117,-0.278299,-0.17803,-0.12355,-0.192512,0011110000,10.24,76
62453,24729,2005/05/20 18:00:00,46.1670,-3.5690,15.039,-0.340143,-0.0445056,-0.030887,-0.235303,0011110000,10.35,116
62453,24729,2005/05/20 19:00:00,46.1700,-3.5760,15,-0.216455,0.133519,0.092662,-0.149736,0011110000,10.35,156
62453,24729,2005/05/20 20:00:00,46.1760,-3.5800,15.039,-0.123688,0.26706,0.185325,-0.085556,0011110000,10.35,197
62453,24729,2005/05/20 21:00:00,46.1830,-3.5780,15.039,0.0618442,0.311607,0.216212,0.042773,0011110000,10.35,237
62453,24729,2005/05/20 22:01:00,46.1910,-3.5720,14.922,0.182491,0.350333,0.243049,0.126198,0011110000,10.24,255
62453,24729,2005/05/21 00:00:00,46.1990,-3.5550,14.805,0.265046,0.179609,0.124588,0.183261,0011110000,10.35,255
62453,24729,2005/05/21 01:00:00,46.2000,-3.5480,14.844,0.216455,0.0445317,0.030887,0.149651,0011110000,10.35,255
62453,24729,2005/05/21 02:00:00,46.1980,-3.5440,14.766,0.123688,-0.0890625,-0.061775,0.085516,0011110000,10.35,255
62453,24729,2005/05/21 03:01:00,46.1940,-3.5440,14.844,5.26775e-13,-0.175195,-0.121525,0,0011110000,10.35,255
62453,24729,2005/05/21 04:00:00,46.1900,-3.5480,14.766,-0.125785,-0.181121,-0.125644,-0.086976,0011110000,10.35,255
62453,24729,2005/05/21 05:01:00,46.1860,-3.5570,14.727,-0.273736,-0.17517,-0.121525,-0.189294,0011110000,10.35,255
62453,24729,2005/05/21 06:00:00,46.1860,-3.5680,14.844,-0.345908,0,0,-0.239211,0011110000,10.35,255
62453,24729,2005/05/21 07:01:00,46.1860,-3.5790,14.844,-0.334567,0,0,-0.231368,0011110000,10.18,255
62453,24729,2005/05/21 08:00:00,46.1910,-3.5860,14.961,-0.220123,0.226387,0.157055,-0.152218,0011110000,10.35,255
62453,24729,2005/05/21 09:00:00,46.1990,-3.5880,14.922,-0.0618442,0.356224,0.2471,-0.042761,0011110000,10.24,255
62453,24729,2005/05/21 10:00:00,46.2080,-3.5850,14.961,0.0927662,0.400814,0.277987,0.064132,0011110000,10.24,255
62453,24729,2005/05/21 11:00:00,46.2160,-3.5770,15.117,0.247377,0.356335,0.2471,0.170991,0011110000,10.24,255
62453,24729,2005/05/21 12:00:00,46.2210,-3.5660,15,0.340143,0.222736,0.154437,0.235085,0011110000,10.35,255
62453,24729,2005/05/21 13:01:00,46.2230,-3.5570,15.039,0.273736,0.0876394,0.060762,0.189177,0011110000,10.18,255
62453,24729,2005/05/21 14:00:00,46.2210,-3.5500,15.117,0.220123,-0.0906102,-0.062822,0.152125,0011110000,10.24,255
62453,24729,2005/05/21 15:00:00,46.2170,-3.5470,15.039,0.0927662,-0.17819,-0.12355,0.064113,0011110000,10.24,255
62453,24729,2005/05/21 16:00:00,46.2110,-3.5500,15.078,-0.0927662,-0.267261,-0.185325,-0.064119,0011110000,10.35,255
62453,24729,2005/05/21 17:00:00,46.2060,-3.5580,15,-0.247377,-0.222695,-0.154437,-0.171002,0011110000,10.35,255
62453,24729,2005/05/21 18:00:00,46.2030,-3.5680,14.922,-0.309221,-0.133607,-0.092662,-0.213768,0011110000,10.35,255
62453,24729,2005/05/21 19:00:00,46.2030,-3.5770,14.844,-0.278299,0,0,-0.192397,0011110000,10.24,255
62453,24729,2005/05/21 20:00:00,46.2060,-3.5840,14.805,-0.216455,0.133607,0.092662,-0.149638,0011110000,10.24,255
62453,24729,2005/05/21 21:00:00,46.2120,-3.5850,14.727,-0.0309221,0.267236,0.185325,-0.021375,0011110000,10.35,255
62453,24729,2005/05/21 22:00:00,46.2190,-3.5800,14.727,0.15461,0.311813,0.216212,0.106863,0011110000,10.35,255
62453,24729,2005/05/21 23:00:00,46.2260,-3.5710,14.688,0.278299,0.311853,0.216212,0.192328,0011110000,10.35,255
62453,24729,2005/05/22 00:00:00,46.2300,-3.5620,14.727,0.278299,0.17822,0.12355,0.192309,0011110000,10.35,255
62453,24729,2005/05/22 01:00:00,46.2310,-3.5530,14.688,0.278299,0.044557,0.030887,0.1923,0011110000,10.35,255
62453,24729,2005/05/22 02:01:00,46.2290,-3.5470,14.688,0.182491,-0.0876522,-0.060762,0.1261,0011110000,10.35,255
62453,24729,2005/05/22 03:00:00,46.2240,-3.5440,14.688,0.0943386,-0.226544,-0.157055,0.065191,0011110000,10.24,255
62453,24729,2005/05/22 04:00:00,46.2190,-3.5470,14.727,-0.0927662,-0.222748,-0.154437,-0.064111,0011110000,10.35,255
62453,24729,2005/05/22 05:02:00,46.2130,-3.5540,14.688,-0.209472,-0.258649,-0.179347,-0.14478,0011110000,10.18,255
62453,24729,2005/05/22 06:00:00,46.2100,-3.5650,14.688,-0.351872,-0.138232,-0.095858,-0.243222,0011110000,10.35,255
62453,24729,2005/05/22 07:01:00,46.2100,-3.5780,14.844,-0.395397,0,0,-0.273315,0011110000,10.18,255
62453,24729,2005/05/22 08:00:00,46.2130,-3.5870,14.844,-0.283016,0.135889,0.094233,-0.195627,0011110000,10.24,255
62453,24729,2005/05/22 09:00:00,46.2200,-3.5910,14.844,-0.123688,0.311819,0.216212,-0.085489,0011110000,10.35,255
62453,24729,2005/05/22 10:01:00,46.2290,-3.5870,14.922,0.121661,0.394395,0.27343,0.084075,0011110000,10.24,255
62453,24729,2005/05/22 11:00:00,46.2380,-3.5780,14.883,0.283016,0.407832,0.282699,0.195549,0011110000,10.24,255
62453,24729,2005/05/22 12:01:00,46.2450,-3.5650,14.883,0.395397,0.306848,0.212668,0.273159,0011110000,10.24,255
62453,24729,2005/05/22 13:01:00,46.2470,-3.5510,14.961,0.432909,0.0891393,0.061775,0.299049,0011110000,10.24,255
62453,24729,2005/05/22 14:01:00,46.2460,-3.5410,15,0.309221,-0.04457,-0.030887,0.213605,0011110000,10.24,255
62453,24729,2005/05/22 15:00:00,46.2420,-3.5340,15.039,0.220123,-0.181294,-0.125644,0.152064,0011110000,10.35,255
62453,24729,2005/05/22 16:00:00,46.2340,-3.5330,15,0.0309221,-0.356505,-0.2471,0.021364,0011110000,10.24,255
62453,24729,2005/05/22 17:01:00,46.2260,-3.5380,14.961,-0.152076,-0.350609,-0.243049,-0.105083,0011110000,10.35,255
62453,24729,2005/05/22 18:01:00,46.2200,-3.5480,14.922,-0.309221,-0.267305,-0.185325,-0.213696,0011110000,10.18,255
62453,24729,2005/05/22 19:00:00,46.2170,-3.5610,14.844,-0.4088,-0.135907,-0.094233,-0.282537,0011110000,10.35,255
62453,24729,2005/05/22 20:00:00,46.2180,-3.5720,14.844,-0.340143,0.0445463,0.030887,-0.235089,0011110000,10.35,255
62453,24729,2005/05/22 21:00:00,46.2220,-3.5780,14.766,-0.185532,0.178194,0.12355,-0.128225,0011110000,10.35,255
62453,24729,2005/05/22 22:01:00,46.2300,-3.5760,14.766,0.0608303,0.350583,0.243049,0.042036,0011110000,10.24,255
62453,24729,2005/05/22 23:00:00,46.2390,-3.5690,14.766,0.220123,0.407839,0.282699,0.152091,0011110000,10.35,255
62453,24729,2005/05/23 00:00:00,46.2460,-3.5570,14.727,0.371065,0.311967,0.216212,0.256344,0011110000,10.35,255
62453,24729,2005/05/23 01:00:00,46.2500,-3.5430,14.688,0.432909,0.178285,0.12355,0.299038,0011110000,10.24,255
62453,24729,2005/05/23 02:00:00,46.2500,-3.5300,14.727,0.401987,0,0,0.277668,0011110000,10.24,255
62453,24729,2005/05/23 03:00:00,46.2460,-3.5200,14.688,0.309221,-0.178285,-0.12355,0.213599,0011110000,10.35,255
62453,24729,2005/05/23 04:00:00,46.2400,-3.5160,14.688,0.123688,-0.267403,-0.185325,0.085447,0011110000,10.35,255
62453,24729,2005/05/23 05:00:00,46.2320,-3.5170,14.727,-0.0309221,-0.356492,-0.2471,-0.021365,0011110000,10.35,255
62453,24729,2005/05/23 06:01:00,46.2240,-3.5250,14.766,-0.243321,-0.350596,-0.243049,-0.168139,0011110000,10.18,255
62453,24729,2005/05/23 07:00:00,46.2190,-3.5360,14.727,-0.345908,-0.226523,-0.157055,-0.239056,0011110000,10.18,255
62453,24729,2005/05/23 08:01:00,46.2170,-3.5490,14.844,-0.395397,-0.087633,-0.060762,-0.273276,0011110000,10.18,255
62453,24729,2005/05/23 09:00:00,46.2190,-3.5570,14.844,-0.251569,0.0906036,0.062822,-0.17387,0011110000,10.35,255
62453,24729,2005/05/23 10:00:00,46.2250,-3.5580,14.922,-0.0309221,0.2673,0.185325,-0.02137,0011110000,10.18,255
62453,24729,2005/05/23 11:01:00,46.2340,-3.5520,15,0.182491,0.394431,0.27343,0.126101,0011110000,10.24,255
62453,24729,2005/05/23 12:00:00,46.2420,-3.5400,15.078,0.377354,0.362547,0.251288,0.26071,0011110000,10.35,255
62453,24729,2005/05/23 13:00:00,46.2470,-3.5250,15.156,0.463831,0.222842,0.154437,0.320419,0011110000,10.24,255
62453,24729,2005/05/23 14:01:00,46.2480,-3.5100,15.195,0.456227,0.0438402,0.030381,0.315149,0011110000,10.18,255
62453,24729,2005/05/23 15:00:00,46.2450,-3.4990,15.195,0.345908,-0.135976,-0.094233,0.238948,0011110000,10.35,255
62453,24729,2005/05/23 16:00:00,46.2380,-3.4920,15.234,0.216455,-0.311962,-0.216212,0.149537,0011110000,10.24,255
62453,24729,2005/05/23 17:01:00,46.2300,-3.4920,15.234,-5.67296e-13,-0.350635,-0.243049,0,0011110000,10.24,255
62453,24729,2005/05/23 18:00:00,46.2220,-3.4970,15.117,-0.157231,-0.362467,-0.251288,-0.108653,0011110000,10.35,255
62453,24729,2005/05/23 19:00:00,46.2150,-3.5070,15.078,-0.309221,-0.31183,-0.216212,-0.213714,0011110000,10.35,255
62453,24729,2005/05/23 20:00:00,46.2120,-3.5200,15.039,-0.401987,-0.133629,-0.092662,-0.277853,0011110000,10.35,255
62453,24729,2005/05/23 21:00:00,46.2130,-3.5300,14.961,-0.309221,0.0445423,0.030887,-0.213737,0011110000,10.35,255
62453,24729,2005/05/23 22:00:00,46.2180,-3.5340,15,-0.123688,0.222724,0.154437,-0.08549,0011110000,10.35,255
62453,24729,2005/05/23 23:00:00,46.2260,-3.5300,14.961,0.123688,0.3564,0.2471,0.08548,0011110000,10.35,255
62453,24729,2005/05/24 00:00:00,46.2340,-3.5200,14.922,,,0.2471,0.213669,0011119900,10.35,255
62453,24729,2005/05/24 01:00:00,46.2400,-3.5050,14.922,0.463831,0.267374,0.185325,0.320462,0011110000,10.24,255
62453,24729,2005/05/24 02:00:00,46.2420,-3.4910,14.922,0.432909,0.0891311,0.061775,0.299076,0011110000,10.35,255
62453,24729,2005/05/24 03:00:00,46.2390,-3.4800,14.844,0.340143,-0.133695,-0.092662,0.234991,0011110000,10.35,255
62453,24729,2005/05/24 04:01:00,46.2340,-3.4730,14.766,0.212906,-0.219157,-0.151906,0.147099,0011110000,10.18,255
62453,24729,2005/05/24 05:01:00,46.2260,-3.4730,14.766,-3.98233e-13,-0.356452,-0.2471,0,0011110000,10.24,255
62453,24729,2005/05/24 06:00:00,46.2180,-3.4770,14.844,-0.125785,-0.362441,-0.251288,-0.086929,0011110000,10.35,255
62453,24729,2005/05/24 07:00:00,46.2120,-3.4880,14.922,-0.340143,-0.267266,-0.185325,-0.2351,0011110000,10.35,255
62453,24729,2005/05/24 08:00:00,46.2080,-3.5010,15,-0.401987,-0.178161,-0.12355,-0.277871,0011110000,10.24,255
62453,24729,2005/05/24 09:00:00,46.2080,-3.5140,15,-0.401987,0,0,-0.277881,0011110000,10.35,255
62453,24729,2005/05/24 10:00:00,46.2120,-3.5200,15.156,-0.185532,0.178161,0.12355,-0.128248,0011110000,10.35,255
62453,24729,2005/05/24 11:00:00,46.2200,-3.5180,15.273,0.0618442,0.356361,0.2471,0.042745,0011110000,10.35,255
62453,24729,2005/05/24 12:00:00,46.2290,-3.5090,15.43,0.278299,0.400969,0.277987,0.192321,0011110000,10.24,255
62453,24729,2005/05/24 13:01:00,46.2350,-3.4950,15.664,0.425812,0.262966,0.182287,0.294222,0011110000,10.35,251
62453,24729,2005/05/24 14:00:00,46.2370,-3.4800,16.016,0.471693,0.0906335,0.062822,0.3259,0011110000,10.35,255
62453,24729,2005/05/24 15:00:00,46.2340,-3.4680,16.367,0.371065,-0.133683,-0.092662,0.256377,0011110000,10.35,255
62453,24729,2005/05/24 16:00:00,46.2270,-3.4600,16.641,0.247377,-0.311899,-0.216212,0.170934,0011110000,10.35,251
62453,24729,2005/05/24 17:00:00,46.2180,-3.4580,16.367,0.0618442,-0.400954,-0.277987,0.04274,0011110000,10.35,247
62453,24729,2005/05/24 18:01:00,46.2080,-3.4630,16.172,-0.152076,-0.438125,-0.303811,-0.105116,0011110000,10.24,255
62453,24729,2005/05/24 19:00:00,46.2000,-3.4750,16.094,-0.377354,-0.362321,-0.251288,-0.260872,0011110000,10.29,255
62453,24729,2005/05/24 20:00:00,46.1930,-3.4900,15.938,-0.463831,-0.311704,-0.216212,-0.320699,0011110000,10.35,255
62453,24729,2005/05/24 21:00:00,46.1910,-3.5060,15.898,-0.494753,-0.0890511,-0.061775,-0.342107,0011110000,10.35,255
62453,24729,2005/05/24 22:01:00,46.1940,-3.5170,15.82,-0.334567,0.131388,0.091143,-0.231341,0011110000,10.18,255
62453,24729,2005/05/24 23:00:00,46.2000,-3.5210,15.742,-0.125785,0.271706,0.188466,-0.086968,0011110000,10.35,255
62453,24729,2005/05/25 00:00:00,46.2090,-3.5150,15.703,0.185532,0.400822,0.277987,0.128261,0011110000,10.24,255
62453,24729,2005/05/25 01:00:00,46.2170,-3.5050,15.391,0.309221,0.356341,0.2471,0.213735,0011110000,10.24,255
62453,24729,2005/05/25 02:00:00,46.2220,-3.4930,15.352,0.371065,0.22274,0.154437,0.256452,0011110000,10.35,255
62453,24729,2005/05/25 03:00:00,46.2230,-3.4800,15.195,0.401987,0.0445504,0.030887,0.277807,0011110000,10.35,255
62453,24729,2005/05/25 04:00:00,46.2190,-3.4710,15.156,0.278299,-0.178197,-0.12355,0.192333,0011110000,10.35,255
62453,24729,2005/05/25 05:00:00,46.2120,-3.4660,15.195,0.15461,-0.311813,-0.216212,0.106863,0011110000,10.35,255
62453,24729,2005/05/25 06:01:00,46.2010,-3.4680,15.117,-0.0608303,-0.48188,-0.334192,-0.042051,0011110000,10.24,255
62453,24729,2005/05/25 07:00:00,46.1920,-3.4770,15.234,-0.283016,-0.407555,-0.282699,-0.195681,0011110000,10.24,255
62453,24729,2005/05/25 08:00:00,46.1850,-3.4920,15.234,-0.463831,-0.311659,-0.216212,-0.320745,0011110000,10.35,255
62453,24729,2005/05/25 09:00:00,46.1820,-3.5080,15.352,-0.494753,-0.133556,-0.092662,-0.34216,0011110000,10.35,255
62453,24729,2005/05/25 10:00:00,46.1810,-3.5220,15.43,-0.432909,-0.044517,-0.030887,-0.299401,0011110000,10.35,255
62453,24729,2005/05/25 11:01:00,46.1870,-3.5280,15.586,-0.182491,0.262735,0.182287,-0.126205,0011110000,10.24,255
62453,24729,2005/05/25 12:00:00,46.1940,-3.5270,15.664,0.0314462,0.316953,0.219877,0.021745,0011110000,10.29,255
62453,24729,2005/05/25 13:01:00,46.2030,-3.5190,15.742,0.243321,0.394207,0.27343,0.168229,0011110000,10.24,255
62453,24729,2005/05/25 14:01:00,46.2080,-3.5070,15.82,0.371065,0.222683,0.154437,0.256517,0011110000,10.35,255
62453,24729,2005/05/25 15:00:00,46.2090,-3.4970,16.094,0.314462,0.0452939,0.031411,0.217375,0011110000,10.35,226
62453,24729,2005/05/25 16:00:00,46.2070,-3.4890,16.211,0.247377,-0.0890772,-0.061775,0.171004,0011110000,10.35,198
62453,24729,2005/05/25 17:00:00,46.2020,-3.4830,16.133,0.185532,-0.222679,-0.154437,0.128261,0011110000,10.29,171
62453,24729,2005/05/25 18:00:00,46.1950,-3.4820,16.094,0.0309221,-0.311716,-0.216212,0.021379,0011110000,10.35,141
62453,24729,2005/05/25 19:00:00,46.1860,-3.4880,16.055,-0.185532,-0.400719,-0.277987,-0.128294,0011110000,10.29,101
62453,24729,2005/05/25 20:00:00,46.1780,-3.4990,15.781,-0.340143,-0.356139,-0.2471,-0.235241,0011110000,10.35,65
62453,24729,2005/05/25 21:00:00,46.1720,-3.5140,15.742,-0.463831,-0.26707,-0.185325,-0.320824,0011110000,10.35,99
62453,24729,2005/05/25 22:00:00,46.1700,-3.5280,15.664,-0.432909,-0.0890169,-0.061775,-0.299458,0011110000,10.24,140
62453,24729,2005/05/25 23:01:00,46.1720,-3.5370,15.547,-0.273736,0.0875576,0.060762,-0.189353,0011110000,10.35,142
62453,24729,2005/05/26 00:00:00,46.1780,-3.5390,15.586,-0.0628924,0.271597,0.188466,-0.043502,0011110000,10.24,156
62453,24729,2005/05/26 01:00:00,46.1850,-3.5330,15.547,0.185532,0.311619,0.216212,0.128315,0011110000,10.35,188
62453,24729,2005/05/26 02:00:00,46.1900,-3.5230,15.508,0.309221,0.222609,0.154437,0.213834,0011110000,10.35,217
62453,24729,2005/05/26 03:00:00,46.1900,-3.5120,15.547,0.340143,0,0,0.235207,0011110000,10.35,219
62453,24729,2005/05/26 04:01:00,46.1890,-3.5040,15.43,0.243321,-0.0437936,-0.030381,0.168257,0011110000,10.24,232
62453,24729,2005/05/26 05:00:00,46.1840,-3.4980,15.508,0.188677,-0.226378,-0.157055,0.130477,0011110000,10.35,204
62453,24729,2005/05/26 06:00:00,46.1770,-3.4960,15.508,0.0618442,-0.311613,-0.216212,0.042772,0011110000,10.35,200
62453,24729,2005/05/26 07:00:00,46.1690,-3.5000,15.586,-0.123688,-0.35608,-0.2471,-0.085556,0011110000,10.35,183
62453,24729,2005/05/26 08:01:00,46.1610,-3.5090,15.664,-0.273736,-0.350192,-0.243049,-0.189373,0011110000,10.24,142
62453,24729,2005/05/26 09:00:00,46.1550,-3.5230,15.781,-0.440247,-0.271512,-0.188466,-0.304605,0011110000,10.29,104
62453,24729,2005/05/26 10:00:00,46.1520,-3.5360,16.016,-0.401987,-0.133483,-0.092662,-0.278156,0011110000,10.35,68
62453,24729,2005/05/26 11:00:00,46.1530,-3.5470,16.055,-0.340143,0.0444934,0.030887,-0.235367,0011110000,10.35,44
62453,24729,2005/05/26 12:01:00,46.1580,-3.5520,16.328,-0.152076,0.218832,0.151906,-0.105226,0011110000,10.24,47
62453,24729,2005/05/26 13:00:00,46.1660,-3.5490,16.211,0.0943386,0.362043,0.251288,0.065268,0011110000,10.35,79
62453,24729,2005/05/26 14:00:00,46.1720,-3.5400,16.25,0.278299,0.267041,0.185325,0.192516,0011110000,10.29,103
62453,24729,2005/05/26 15:00:00,46.1760,-3.5300,16.328,0.309221,0.178043,0.12355,0.213887,0011110000,10.35,125
62453,24729,2005/05/26 16:01:00,46.1760,-3.5210,16.367,0.273736,0,0,0.189335,0011110000,10.35,156
62453,24729,2005/05/26 18:00:00,46.1660,-3.5110,16.328,0.15591,-0.224412,-0.155735,0.107848,0011110000,10.24,237
62453,24729,2005/05/26 19:00:00,46.1580,-3.5140,16.328,-0.0927662,-0.356009,-0.2471,-0.06418,0011110000,10.35,255
62453,24729,2005/05/26 20:00:00,46.1500,-3.5220,16.133,-0.247377,-0.355957,-0.2471,-0.171172,0011110000,10.35,255
62453,24729,2005/05/26 21:00:00,46.1430,-3.5350,16.133,-0.401987,-0.311419,-0.216212,-0.278192,0011110000,10.35,255
62453,24729,2005/05/26 22:00:00,46.1390,-3.5470,16.133,-0.371065,-0.177936,-0.12355,-0.256818,0011110000,10.35,252
62453,24729,2005/05/26 23:01:00,46.1390,-3.5680,16.016,-0.638718,0,0,-0.44208,0011110000,10.24,220
62453,24729,2005/05/27 00:00:00,46.1440,-3.5780,16.016,-0.314462,0.226192,0.157055,-0.21764,0011110000,10.35,183
62453,24729,2005/05/27 01:00:00,46.1530,-3.5800,16.016,-0.0618442,0.400411,0.277987,-0.042797,0011110000,10.29,144
62453,24729,2005/05/27 02:01:00,46.1620,-3.5740,16.094,0.182491,0.393912,0.27343,0.126266,0011110000,10.35,106
62453,24729,2005/05/27 03:00:00,46.1690,-3.5650,16.172,0.283016,0.316808,0.219877,0.195791,0011110000,10.35,84
62453,24729,2005/05/27 04:00:00,46.1730,-3.5530,16.172,0.371065,0.178034,0.12355,0.256678,0011110000,10.35,98
62453,24729,2005/05/27 05:01:00,46.1720,-3.5440,16.016,0.273736,-0.04378,-0.030381,0.189348,0011110000,10.24,107
62453,24729,2005/05/27 06:00:00,46.1680,-3.5370,16.094,0.220123,-0.181048,-0.125644,0.152269,0011110000,10.29,115
62453,24729,2005/05/27 07:00:00,46.1620,-3.5340,16.094,0.0927662,-0.267021,-0.185325,0.064177,0011110000,10.35,107
62453,24729,2005/05/27 08:01:00,46.1550,-3.5360,16.172,-0.0608303,-0.306381,-0.212668,-0.042088,0011110000,10.24,120
62453,24729,2005/05/27 09:00:00,46.1470,-3.5450,16.289,-0.283016,-0.36197,-0.251288,-0.195843,0011110000,10.35,129
62453,24729,2005/05/27 10:00:00,46.1420,-3.5580,16.406,-0.401987,-0.222434,-0.154437,-0.278202,0011110000,10.35,136
62453,24729,2005/05/27 11:00:00,46.1390,-3.5710,16.406,-0.401987,-0.133451,-0.092662,-0.278222,0011110000,10.35,168
62453,24729,2005/05/27 12:01:00,46.1420,-3.5810,16.523,-0.304152,0.131263,0.091143,-0.210509,0011110000,10.35,208
62453,24729,2005/05/27 13:00:00,46.1480,-3.5840,16.602,-0.0943386,0.271448,0.188466,-0.065288,0011110000,10.35,248
62453,24729,2005/05/27 14:00:00,46.1560,-3.5800,16.914,0.123688,0.355944,0.2471,0.085589,0011110000,10.41,251
62453,24729,2005/05/27 15:00:00,46.1630,-3.5710,17.578,0.278299,0.311493,0.216212,0.192549,0011110000,10.29,210
62453,24729,2005/05/27 16:01:00,46.1660,-3.5600,18.047,0.334567,0.131321,0.091143,0.231458,0011110000,10.24,172
62453,24729,2005/05/27 17:00:00,46.1670,-3.5500,18.047,0.314462,0.0452591,0.031411,0.217542,0011110000,10.29,132
62453,24729,2005/05/27 18:00:00,46.1630,-3.5410,18.281,0.278299,-0.178014,-0.12355,0.19253,0011110000,10.41,92
62453,24729,2005/05/27 19:01:00,46.1580,-3.5380,17.852,0.0912455,-0.218852,-0.151906,0.06313,0011110000,10.41,52
62453,24729,2005/05/27 20:01:00,46.1520,-3.5390,16.914,-0.0309221,-0.266972,-0.185325,-0.021396,0011110000,10.41,48
62453,24729,2005/05/27 21:00:00,46.1450,-3.5450,16.68,-0.188677,-0.316709,-0.219877,-0.130568,0011110000,10.35,74
62453,24729,2005/05/28 00:00:00,46.1440,-3.5780,16.016,-0.340143,-0.014829,-0.010296,-0.235402,0011110000,10.35,183
62453,24729,2005/05/28 01:01:00,46.1410,-3.5830,16.25,-0.152076,-0.131268,-0.091143,-0.10525,0011110000,10.35,235
62453,24729,2005/05/28 02:00:00,46.1480,-3.5820,16.211,0.0314462,0.316686,0.219877,0.021763,0011110000,10.35,255
62453,24729,2005/05/28 03:01:00,46.1550,-3.5730,16.172,0.273736,0.306342,0.212668,0.18942,0011110000,10.35,255
62453,24729,2005/05/28 04:01:00,46.1610,-3.5630,16.094,0.309221,0.266987,0.185325,0.213949,0011110000,10.24,255